H1 CPF 1 NER 2011 12 28 9 8621 glonass121 H2 1000702 9121 36401 2011 12 28 0 0 0 2011 12 31 23 45 0 900 1 1 0 0 0 H9 10 0 55923 0.00000 0 12735399.285 17298453.638 13734844.077 10 0 55923 900.00000 0 11272500.832 16158686.971 16178939.056 10 0 55923 1800.00000 0 9486593.790 14987165.751 18308251.268 10 0 55923 2700.00000 0 7404408.005 13842304.991 20081267.972 10 0 55923 3600.00000 0 5064565.756 12777839.860 21463405.977 10 0 55923 4500.00000 0 2516228.465 11840532.859 22427693.274 10 0 55923 5400.00000 0 -182699.376 11068193.210 22955301.316 10 0 55923 6300.00000 0 -2967735.128 10488092.551 23035917.233 10 0 55923 7200.00000 0 -5770261.970 10115844.025 22667948.431 10 0 55923 8100.00000 0 -8520150.347 9954792.156 21858555.432 10 0 55923 9000.00000 0 -11148447.793 9995939.115 20623512.181 10 0 55923 9900.00000 0 -13590024.915 10218410.199 18986896.519 10 0 55923 10800.00000 0 -15786067.263 10590438.319 16980616.902 10 0 55923 11700.00000 0 -17686309.208 11070825.198 14643784.716 10 0 55923 12600.00000 0 -19250916.721 11610816.641 12021944.780 10 0 55923 13500.00000 0 -20451940.936 12156311.576 9166179.470 10 0 55923 14400.00000 0 -21274282.517 12650310.351 6132104.539 10 0 55923 15300.00000 0 -21716127.536 13035497.625 2978777.036 10 0 55923 16200.00000 0 -21788838.158 13256849.566 -232462.532 10 0 55923 17100.00000 0 -21516304.432 13264154.191 -3439190.385 10 0 55923 18000.00000 0 -20933786.319 13014337.650 -6579117.694 10 0 55923 18900.00000 0 -20086296.559 12473497.738 -9591302.531 10 0 55923 19800.00000 0 -19026594.085 11618558.643 -12417331.591 10 0 55923 20700.00000 0 -17812873.811 10438477.224 -15002448.591 10 0 55923 21600.00000 0 -16506250.863 8934950.236 -17296607.832 10 0 55923 22500.00000 0 -15168145.392 7122592.909 -19255433.225 10 0 55923 23400.00000 0 -13857677.648 5028581.543 -20841065.173 10 0 55923 24300.00000 0 -12629181.928 2691774.853 -22022880.261 10 0 55923 25200.00000 0 -11529942.487 161350.255 -22778071.204 10 0 55923 26100.00000 0 -10598244.907 -2504988.878 -23092077.189 10 0 55923 27000.00000 0 -9861822.973 -5243161.646 -22958857.454 10 0 55923 27900.00000 0 -9336764.593 -7985126.096 -22381003.696 10 0 55923 28800.00000 0 -9026921.409 -10661465.099 -21369689.547 10 0 55923 29700.00000 0 -8923845.893 -13204036.274 -19944458.126 10 0 55923 30600.00000 0 -9007258.185 -15548577.909 -18132851.261 10 0 55923 31500.00000 0 -9246023.088 -17637164.242 -15969886.758 10 0 55923 32400.00000 0 -9599596.617 -19420409.549 -13497392.633 10 0 55923 33300.00000 0 -10019881.973 -20859330.295 -10763209.876 10 0 55923 34200.00000 0 -10453417.614 -21926788.292 -7820277.905 10 0 55923 35100.00000 0 -10843806.006 -22608454.816 -4725619.148 10 0 55923 36000.00000 0 -11134281.093 -22903255.161 -1539241.474 10 0 55923 36900.00000 0 -11270306.315 -22823274.568 1677020.873 10 0 55923 37800.00000 0 -11202093.120 -22393128.847 4860705.665 10 0 55923 38700.00000 0 -10886932.828 -21648825.551 7949937.146 10 0 55923 39600.00000 0 -10291242.074 -20636163.020 10884632.511 10 0 55923 40500.00000 0 -9392233.819 -19408734.309 13607676.409 10 0 55923 41400.00000 0 -8179141.454 -18025619.867 16066039.945 10 0 55923 42300.00000 0 -6653942.282 -16548866.210 18211821.505 10 0 55923 43200.00000 0 -4831547.745 -15040857.019 20003188.429 10 0 55923 44100.00000 0 -2739450.269 -13561687.734 21405200.501 10 0 55923 45000.00000 0 -416839.706 -12166654.644 22390498.569 10 0 55923 45900.00000 0 2086775.240 -10903964.604 22939844.438 10 0 55923 46800.00000 0 4713384.230 -9812762.064 23042501.150 10 0 55923 47700.00000 0 7398656.060 -8921556.683 22696445.956 10 0 55923 48600.00000 0 10074392.517 -8247117.630 21908411.644 10 0 55923 49500.00000 0 12671153.268 -7793880.890 20693755.311 10 0 55923 50400.00000 0 15120942.211 -7553894.013 19076157.064 10 0 55923 51300.00000 0 17359843.195 -7507299.893 17087154.591 10 0 55923 52200.00000 0 19330495.006 -7623338.172 14765522.780 10 0 55923 53100.00000 0 20984302.122 -7861820.848 12156510.832 10 0 55923 54000.00000 0 22283289.062 -8175018.450 9310952.175 10 0 55923 54900.00000 0 23201521.136 -8509875.649 6284265.119 10 0 55923 55800.00000 0 23726032.812 -8810461.227 3135364.582 10 0 55923 56700.00000 0 23857225.898 -9020547.443 -74493.065 10 0 55923 57600.00000 0 23608722.222 -9086208.516 -3282908.644 10 0 55923 58500.00000 0 23006678.604 -8958327.375 -6427558.069 10 0 55923 59400.00000 0 22088594.624 -8594904.061 -9447405.147 10 0 55923 60300.00000 0 20901664.952 -7963067.861 -12283885.331 10 0 55923 61200.00000 0 19500746.890 -7040708.207 -14882037.261 10 0 55923 62100.00000 0 17946029.576 -5817655.653 -17191560.508 10 0 55923 63000.00000 0 16300503.246 -4296363.394 -19167779.704 10 0 55923 63900.00000 0 14627334.739 -2492060.850 -20772497.348 10 0 55923 64800.00000 0 12987258.696 -432372.767 -21974720.076 10 0 55923 65700.00000 0 11436092.618 1843580.606 -22751245.770 10 0 55923 66600.00000 0 10022478.359 4286565.367 -23087101.417 10 0 55923 67500.00000 0 8785942.810 6839041.387 -22975824.531 10 0 55923 68400.00000 0 7755357.099 9437321.553 -22419583.496 10 0 55923 69300.00000 0 6947857.170 12013994.726 -21429135.029 10 0 55923 70200.00000 0 6368269.499 14500513.638 -20023619.571 10 0 55923 71100.00000 0 6009065.039 16829842.129 -18230198.119 10 0 55923 72000.00000 0 5850842.832 18939053.367 -16083536.702 10 0 55923 72900.00000 0 5863322.897 20771772.493 -13625147.353 10 0 55923 73800.00000 0 6006806.930 22280363.096 -10902596.957 10 0 55923 74700.00000 0 6234045.928 23427766.926 -7968598.059 10 0 55923 75600.00000 0 6492436.586 24188920.273 -4879997.952 10 0 55923 76500.00000 0 6726454.352 24551687.557 -1696684.665 10 0 55923 77400.00000 0 6880220.680 24517272.433 1519569.577 10 0 55923 78300.00000 0 6900095.895 24100088.454 4706305.343 10 0 55923 79200.00000 0 6737187.539 23327093.839 7801590.162 10 0 55923 80100.00000 0 6349667.175 22236617.476 10745225.926 10 0 55923 81000.00000 0 5704796.354 20876724.842 13479925.485 10 0 55923 81900.00000 0 4780574.352 19303192.058 15952434.869 10 0 55923 82800.00000 0 3566936.210 17577173.058 18114578.438 10 0 55923 83700.00000 0 2066448.389 15762657.962 19924205.871 10 0 55923 84600.00000 0 294470.645 13923829.613 21346021.855 10 0 55923 85500.00000 0 -1721224.681 12122429.747 22352281.661 10 0 55924 0.00000 0 -3941361.726 10415245.673 22923338.605 10 0 55924 900.00000 0 -6316562.272 8851823.406 23048032.373 10 0 55924 1800.00000 0 -8789180.635 7472503.008 22723910.299 10 0 55924 2700.00000 0 -11295497.471 6306859.518 21957277.156 10 0 55924 3600.00000 0 -13768180.437 5372613.346 20763072.366 10 0 55924 4500.00000 0 -16138909.366 4675056.414 19164576.929 10 0 55924 5400.00000 0 -18341056.176 4207016.744 17192955.866 10 0 55924 6300.00000 0 -20312307.385 3949362.004 14886645.195 10 0 55924 7200.00000 0 -21997119.278 3872019.408 12290595.740 10 0 55924 8100.00000 0 -23348902.973 3935467.401 9455388.928 10 0 55924 9000.00000 0 -24331847.941 4092634.480 6436242.392 10 0 55924 9900.00000 0 -24922307.878 4291123.281 3291925.611 10 0 55924 10800.00000 0 -25109691.503 4475664.251 83607.536 10 0 55924 11700.00000 0 -24896821.873 4590693.678 -3126340.471 10 0 55924 12600.00000 0 -24299750.367 4582945.838 -6275562.155 10 0 55924 13500.00000 0 -23347034.606 4403948.697 -9302929.996 10 0 55924 14400.00000 0 -22078512.108 4012317.114 -12149730.948 10 0 55924 15300.00000 0 -20543622.551 3375746.426 -14760801.100 10 0 55924 16200.00000 0 -18799350.160 2472622.349 -17085587.527 10 0 55924 17100.00000 0 -16907873.169 1293179.488 -19079117.472 10 0 55924 18000.00000 0 -14934019.057 -159840.037 -20702857.016 10 0 55924 18900.00000 0 -12942631.666 -1871055.422 -21925443.903 10 0 55924 19800.00000 0 -10995959.371 -3812849.171 -22723281.755 10 0 55924 20700.00000 0 -9151172.083 -5946285.886 -23080985.499 10 0 55924 21600.00000 0 -7458109.027 -8222510.394 -22991670.611 10 0 55924 22500.00000 0 -5957349.411 -10584568.215 -22457081.482 10 0 55924 23400.00000 0 -4678684.692 -12969574.072 -21487556.870 10 0 55924 24300.00000 0 -3640054.526 -15311140.008 -20101833.209 10 0 55924 25200.00000 0 -2846989.460 -17541963.954 -18326689.076 10 0 55924 26100.00000 0 -2292582.755 -19596472.742 -16196436.947 10 0 55924 27000.00000 0 -1957991.933 -21413411.065 -13752270.929 10 0 55924 27900.00000 0 -1813448.869 -22938269.706 -11041481.754 10 0 55924 28800.00000 0 -1819736.164 -24125452.347 -8116552.970 10 0 55924 29700.00000 0 -1930067.999 -24940090.762 -5034154.578 10 0 55924 30600.00000 0 -2092296.573 -25359432.211 -1854052.572 10 0 55924 31500.00000 0 -2251351.315 -25373740.282 1362045.065 10 0 55924 32400.00000 0 -2351807.798 -24986670.517 4551683.931 10 0 55924 33300.00000 0 -2340477.449 -24215103.983 7652877.133 10 0 55924 34200.00000 0 -2168907.821 -23088444.654 10605313.576 10 0 55924 35100.00000 0 -1795686.552 -21647409.139 13351536.638 10 0 55924 36000.00000 0 -1188450.116 -19942358.751 15838069.579 10 0 55924 36900.00000 0 -325510.760 -18031243.448 18016464.952 10 0 55924 37800.00000 0 802968.998 -15977243.637 19844256.835 10 0 55924 38700.00000 0 2194305.906 -13846208.741 21285796.655 10 0 55924 39600.00000 0 3833159.673 -11704000.089 22312955.664 10 0 55924 40500.00000 0 5691938.465 -9613849.730 22905679.935 10 0 55924 41400.00000 0 7731730.771 -7633846.036 23052386.674 10 0 55924 42300.00000 0 9903725.820 -5814651.614 22750193.836 10 0 55924 43200.00000 0 12151064.024 -4197549.069 22004978.383 10 0 55924 44100.00000 0 14411040.585 -2812896.215 20831261.919 10 0 55924 45000.00000 0 16617570.277 -1679054.992 19251925.866 10 0 55924 45900.00000 0 18703810.261 -801838.131 17297761.779 10 0 55924 46800.00000 0 20604830.981 -174495.620 15006865.688 10 0 55924 47700.00000 0 22260222.927 221759.880 12423888.576 10 0 55924 48600.00000 0 23616529.767 416712.500 9599158.053 10 0 55924 49500.00000 0 24629405.661 449633.212 6587688.918 10 0 55924 50400.00000 0 25265406.201 367366.079 3448102.706 10 0 55924 51300.00000 0 25503338.106 222093.408 241478.150 10 0 55924 52200.00000 0 25335111.568 68876.036 -2969844.225 10 0 55924 53100.00000 0 24766060.305 -36925.804 -6123479.126 10 0 55924 54000.00000 0 23814717.001 -42240.764 -9158210.845 10 0 55924 54900.00000 0 22512054.758 101226.418 -12015180.886 10 0 55924 55800.00000 0 20900227.639 434714.282 -14639025.628 10 0 55924 56700.00000 0 19030864.159 990426.953 -16978942.264 10 0 55924 57600.00000 0 16962985.925 1789942.628 -18989662.992 10 0 55924 58500.00000 0 14760638.866 2843074.948 -20632319.546 10 0 55924 59400.00000 0 12490335.844 4147234.851 -21875182.580 10 0 55924 60300.00000 0 10218416.637 5687319.645 -22694263.006 10 0 55924 61200.00000 0 8008434.272 7436134.089 -23073764.956 10 0 55924 62100.00000 0 5918674.959 9355326.465 -23006382.851 10 0 55924 63000.00000 0 3999913.076 11396801.524 -22493437.726 10 0 55924 63900.00000 0 2293492.808 13504552.649 -21544850.678 10 0 55924 64800.00000 0 829814.455 15616838.454 -20178954.027 10 0 55924 65700.00000 0 -372713.135 17668614.898 -18422143.424 10 0 55924 66600.00000 0 -1308211.568 19594123.217 -16308376.859 10 0 55924 67500.00000 0 -1983341.744 21329527.370 -13878529.164 10 0 55924 68400.00000 0 -2416782.701 22815492.221 -11179613.149 10 0 55924 69300.00000 0 -2638202.442 23999595.546 -8263881.210 10 0 55924 70200.00000 0 -2686763.919 24838473.383 -5187823.529 10 0 55924 71100.00000 0 -2609228.833 25299608.762 -2011081.235 10 0 55924 72000.00000 0 -2457738.960 25362688.177 1204705.017 10 0 55924 72900.00000 0 -2287368.582 25020467.974 4397089.122 10 0 55924 73800.00000 0 -2153551.644 24279112.983 7504033.107 10 0 55924 74700.00000 0 -2109492.890 23157991.867 10465116.253 10 0 55924 75600.00000 0 -2203673.353 21688936.435 13222715.744 10 0 55924 76500.00000 0 -2477556.882 19914994.840 15723135.217 10 0 55924 77400.00000 0 -2963596.142 17888730.052 17917658.362 10 0 55924 78300.00000 0 -3683624.026 15670134.325 19763506.362 10 0 55924 79200.00000 0 -4647700.198 13324246.646 21224679.801 10 0 55924 80100.00000 0 -5853463.230 10918572.860 22272667.998 10 0 55924 81000.00000 0 -7286017.347 8520416.496 22887011.468 10 0 55924 81900.00000 0 -8918360.179 6194231.981 23055706.197 10 0 55924 82800.00000 0 -10712334.811 3999111.171 22775441.509 10 0 55924 83700.00000 0 -12620067.212 1986508.183 22051666.749 10 0 55924 84600.00000 0 -14585829.461 198297.515 20898485.308 10 0 55924 85500.00000 0 -16548250.930 -1334753.718 19338378.028 10 0 55925 0.00000 0 -18442784.789 -2594036.263 17401761.459 10 0 55925 900.00000 0 -20204326.237 -3573628.922 15126389.392 10 0 55925 1800.00000 0 -21769872.301 -4280287.888 12556610.389 10 0 55925 2700.00000 0 -23081110.767 -4732896.685 9742495.219 10 0 55925 3600.00000 0 -24086829.848 -4961402.706 6738852.539 10 0 55925 4500.00000 0 -24745046.354 -5005286.397 3604152.470 10 0 55925 5400.00000 0 -25024763.271 -4911630.141 399379.983 10 0 55925 6300.00000 0 -24907282.932 -4732870.201 -2813158.752 10 0 55925 7200.00000 0 -24387021.059 -4524328.501 -5971052.860 10 0 55925 8100.00000 0 -23471788.236 -4341629.961 -9013001.754 10 0 55925 9000.00000 0 -22182527.866 -4238115.654 -11880004.623 10 0 55925 9900.00000 0 -20552522.616 -4262361.638 -14516501.053 10 0 55925 10800.00000 0 -18626103.544 -4455908.493 -16871440.958 10 0 55925 11700.00000 0 -16456916.609 -4851297.185 -18899263.736 10 0 55925 12600.00000 0 -14105819.473 -5470493.643 -20560768.569 10 0 55925 13500.00000 0 -11638496.290 -6323767.900 -21823860.308 10 0 55925 14400.00000 0 -9122889.353 -7409074.504 -22664157.898 10 0 55925 15300.00000 0 -6626553.533 -8711960.026 -23065454.862 10 0 55925 16200.00000 0 -4214042.134 -10206001.714 -23020024.230 10 0 55925 17100.00000 0 -1944430.977 -11853759.545 -22528762.880 10 0 55925 18000.00000 0 130918.153 -13608202.780 -21601173.039 10 0 55925 18900.00000 0 1970263.737 -15414552.826 -20255181.390 10 0 55925 19800.00000 0 3542982.914 -17212466.981 -18516798.863 10 0 55925 20700.00000 0 4830601.067 -18938473.505 -16419626.975 10 0 55925 21600.00000 0 5827310.913 -20528557.890 -14004219.125 10 0 55925 22500.00000 0 6539960.145 -21920793.579 -11317307.934 10 0 55925 23400.00000 0 6987508.562 -23057908.003 -8410912.284 10 0 55925 24300.00000 0 7199977.578 -23889677.008 -5341340.112 10 0 55925 25200.00000 0 7216936.175 -24375047.285 -2168105.222 10 0 55925 26100.00000 0 7085586.862 -24483897.187 1047221.533 10 0 55925 27000.00000 0 6858532.267 -24198361.069 4242204.810 10 0 55925 27900.00000 0 6591316.697 -23513660.163 7354757.992 10 0 55925 28800.00000 0 6339846.864 -22438403.551 10324353.113 10 0 55925 29700.00000 0 6157801.430 -20994345.030 13093203.459 10 0 55925 30600.00000 0 6094139.852 -19215604.498 15607395.203 10 0 55925 31500.00000 0 6190817.005 -17147385.262 17817945.167 10 0 55925 32400.00000 0 6480801.614 -14844239.966 19681763.407 10 0 55925 33300.00000 0 6986483.710 -12367956.985 21162501.167 10 0 55925 34200.00000 0 7718539.925 -9785155.321 22231267.020 10 0 55925 35100.00000 0 8675306.007 -7164688.316 22867196.793 10 0 55925 36000.00000 0 9842684.441 -4574964.576 23057865.775 10 0 55925 36900.00000 0 11194592.284 -2081298.076 22799534.853 10 0 55925 37800.00000 0 12693931.338 256601.931 22097225.627 10 0 55925 38700.00000 0 14294040.621 2386896.572 20964622.858 10 0 55925 39600.00000 0 15940570.401 4267544.131 19423806.123 10 0 55925 40500.00000 0 17573699.169 5867808.089 17504815.919 10 0 55925 41400.00000 0 19130600.201 7169284.220 15245062.795 10 0 55925 42300.00000 0 20548053.595 8166404.893 12688591.344 10 0 55925 43200.00000 0 21765093.466 8866401.055 9885213.799 10 0 55925 44100.00000 0 22725578.362 9288725.295 6889530.707 10 0 55925 45000.00000 0 23380576.256 9463962.299 3759858.562 10 0 55925 45900.00000 0 23690463.366 9432274.724 557086.132 10 0 55925 46800.00000 0 23626648.358 9241452.156 -2656517.378 10 0 55925 47700.00000 0 23172849.492 8944647.434 -5818518.207 10 0 55925 48600.00000 0 22325871.397 8597897.627 -8867533.613 10 0 55925 49500.00000 0 21095849.374 8257535.661 -11744423.105 10 0 55925 50400.00000 0 19505951.749 7977602.756 -14393431.974 10 0 55925 51300.00000 0 17591553.421 7807371.286 -16763265.173 10 0 55925 52200.00000 0 15398915.792 7789082.510 -18808071.411 10 0 55925 53100.00000 0 12983428.637 7955994.103 -20488319.240 10 0 55925 54000.00000 0 10407487.195 8330819.082 -21771549.447 10 0 55925 54900.00000 0 7738092.484 8924621.115 -22632990.563 10 0 55925 55800.00000 0 5044273.781 9736212.043 -23056026.888 10 0 55925 56700.00000 0 2394439.055 10752076.617 -23032511.215 10 0 55925 57600.00000 0 -146238.324 11946827.701 -22562917.159 10 0 55925 58500.00000 0 -2518289.923 13284173.389 -21656328.644 10 0 55925 59400.00000 0 -4670179.035 14718356.457 -20330266.899 10 0 55925 60300.00000 0 -6560193.331 16196007.228 -18610357.917 10 0 55925 61200.00000 0 -8157926.232 17658333.736 -16529846.090 10 0 55925 62100.00000 0 -9445286.685 19043559.035 -14128962.328 10 0 55925 63000.00000 0 -10416996.218 20289504.991 -11454157.595 10 0 55925 63900.00000 0 -11080553.015 21336215.301 -8557215.432 10 0 55925 64800.00000 0 -11455664.828 22128508.423 -5494259.389 10 0 55925 65700.00000 0 -11573174.500 22618353.399 -2324673.506 10 0 55925 66600.00000 0 -11473523.151 22766968.355 890043.838 10 0 55925 67500.00000 0 -11204815.581 22546552.621 4087470.936 10 0 55925 68400.00000 0 -10820569.460 21941578.306 7205475.555 10 0 55925 69300.00000 0 -10377243.420 20949585.395 10183425.597 10 0 55925 70200.00000 0 -9931648.911 19581445.218 12963373.618 10 0 55925 71100.00000 0 -9538355.834 17861079.332 15491191.479 10 0 55925 72000.00000 0 -9247202.520 15824644.036 17717632.205 10 0 55925 72900.00000 0 -9101016.397 13519213.210 19599297.658 10 0 55925 73800.00000 0 -9133642.865 11001013.454 21099492.465 10 0 55925 74700.00000 0 -9368366.917 8333284.599 22188946.913 10 0 55925 75600.00000 0 -9816795.389 5583854.392 22846394.248 10 0 55925 76500.00000 0 -10478248.148 2822528.347 23058990.758 10 0 55925 77400.00000 0 -11339684.934 118403.566 22822570.119 10 0 55925 78300.00000 0 -12376171.723 -2462781.444 22141726.869 10 0 55925 79200.00000 0 -13551867.565 -4861150.568 21029727.248 10 0 55925 80100.00000 0 -14821490.640 -7024943.113 19508249.067 10 0 55925 81000.00000 0 -16132201.805 -8912422.451 17606955.723 10 0 55925 81900.00000 0 -17425826.156 -10493361.229 15362912.761 10 0 55925 82800.00000 0 -18641318.518 -11750041.922 12819858.664 10 0 55925 83700.00000 0 -19717368.445 -12677732.188 10027344.494 10 0 55925 84600.00000 0 -20595034.264 -13284616.725 7039759.702 10 0 55925 85500.00000 0 -21220294.447 -13591190.360 3915263.912 10 0 55926 0.00000 0 -21546408.248 -13629140.000 714646.346 10 0 55926 900.00000 0 -21535985.387 -13439764.696 -2499864.399 10 0 55926 1800.00000 0 -21162678.323 -13072002.397 -5665815.152 10 0 55926 2700.00000 0 -20412424.321 -12580148.639 -8721744.514 10 0 55926 3600.00000 0 -19284187.067 -12021364.795 -11608375.746 10 0 55926 4500.00000 0 -17790165.918 -11453082.222 -14269763.106 10 0 55926 5400.00000 0 -15955465.051 -10930412.356 -16654369.633 10 0 55926 6300.00000 0 -13817236.618 -10503672.053 -18716056.065 10 0 55926 7200.00000 0 -11423334.073 -10216128.066 -20414962.629 10 0 55926 8100.00000 0 -8830531.808 -10102054.928 -21718267.854 10 0 55926 9000.00000 0 -6102384.806 -10185187.006 -22600811.110 10 0 55926 9900.00000 0 -3306816.609 -10477628.882 -23045568.124 10 0 55926 10800.00000 0 -513534.470 -10979269.045 -23043971.543 10 0 55926 11700.00000 0 2208622.588 -11677721.075 -22596071.277 10 0 55926 12600.00000 0 4794294.583 -12548794.725 -21710532.047 10 0 55926 13500.00000 0 7184063.885 -13557477.585 -20404468.347 10 0 55926 14400.00000 0 9326670.727 -14659387.009 -18703119.622 10 0 55926 15300.00000 0 11180890.507 -15802632.572 -16639371.243 10 0 55926 16200.00000 0 12716996.275 -16930012.279 -14253129.481 10 0 55926 17100.00000 0 13917746.558 -17981451.708 -11590561.273 10 0 55926 18000.00000 0 14778857.918 -18896584.806 -8703212.231 10 0 55926 18900.00000 0 15308942.863 -19617368.723 -5647018.732 10 0 55926 19800.00000 0 15528915.769 -20090623.093 -2481232.137 10 0 55926 20700.00000 0 15470891.570 -20270386.756 732724.660 10 0 55926 21600.00000 0 15176623.359 -20119992.038 3932446.607 10 0 55926 22500.00000 0 14695544.544 -19613768.038 7055758.815 10 0 55926 23400.00000 0 14082498.045 -18738299.678 10041927.878 10 0 55926 24300.00000 0 13395248.569 -17493187.643 12832848.239 10 0 55926 25200.00000 0 12691883.415 -15891275.308 15374179.795 10 0 55926 26100.00000 0 12028212.211 -13958331.139 17616413.823 10 0 55926 27000.00000 0 11455276.245 -11732198.146 19515845.697 10 0 55926 27900.00000 0 11017073.509 -9261444.393 21035434.772 10 0 55926 28800.00000 0 10748596.539 -6603569.883 22145534.018 10 0 55926 29700.00000 0 10674266.807 -3822843.849 22824474.696 10 0 55926 30600.00000 0 10806832.667 -987862.074 23058994.322 10 0 55926 31500.00000 0 11146778.059 1831074.079 22844499.223 10 0 55926 32400.00000 0 11682267.504 4564647.868 22185156.422 10 0 55926 33300.00000 0 12389630.064 7147174.570 21093812.879 10 0 55926 34200.00000 0 13234361.970 9519095.693 19591743.614 10 0 55926 35100.00000 0 14172605.550 11629216.235 17708233.657 10 0 55926 36000.00000 0 15153041.704 13436592.000 15480002.060 10 0 55926 36900.00000 0 16119115.563 14911988.747 12950479.500 10 0 55926 37800.00000 0 17011500.670 16038853.135 10168953.978 10 0 55926 38700.00000 0 17770696.893 16813756.152 7189601.771 10 0 55926 39600.00000 0 18339651.532 17246291.995 4070423.373 10 0 55926 40500.00000 0 18666292.208 17358438.616 872105.926 10 0 55926 41400.00000 0 18705863.987 17183408.841 -2343164.800 10 0 55926 42300.00000 0 18422971.693 16764042.493 -5512918.865 10 0 55926 43200.00000 0 17793241.105 16150809.246 -8575618.695 10 0 55926 44100.00000 0 16804529.066 15399508.034 -11471853.671 10 0 55926 45000.00000 0 15457631.813 14568761.295 -14145489.235 10 0 55926 45900.00000 0 13766462.080 13717410.452 -16544748.537 10 0 55926 46800.00000 0 11757687.782 12901922.623 -18623206.190 10 0 55926 47700.00000 0 9469847.623 12173917.468 -20340675.759 10 0 55926 48600.00000 0 6951980.450 11577917.561 -21663975.026 10 0 55926 49500.00000 0 4261825.062 11149415.790 -22567555.555 10 0 55926 50400.00000 0 1463664.654 10913339.845 -23033985.706 10 0 55926 51300.00000 0 -1374095.717 10882977.060 -23054278.986 10 0 55926 52200.00000 0 -4181519.638 11059403.813 -22628062.353 10 0 55926 53100.00000 0 -6889792.036 11431442.784 -21763581.770 10 0 55926 54000.00000 0 -9433826.003 11976149.700 -20477545.068 10 0 55926 54900.00000 0 -11754717.502 12659809.426 -18794804.812 10 0 55926 55800.00000 0 -13801947.735 13439400.271 -16747886.633 10 0 55926 56700.00000 0 -15535243.141 14264466.025 -14376371.061 10 0 55926 57600.00000 0 -16926016.766 15079318.204 -11726139.566 10 0 55926 58500.00000 0 -17958331.584 15825476.981 -8848498.121 10 0 55926 59400.00000 0 -18629345.916 16444249.002 -5799193.995 10 0 55926 60300.00000 0 -18949222.363 16879334.042 -2637343.735 10 0 55926 61200.00000 0 -18940503.826 17079350.728 575707.553 10 0 55926 62100.00000 0 -18636982.557 17000174.409 3777573.939 10 0 55926 63000.00000 0 -18082109.463 16606987.594 6906040.484 10 0 55926 63900.00000 0 -17327010.453 15875955.111 9900275.229 10 0 55926 64800.00000 0 -16428193.380 14795451.601 12702017.342 10 0 55926 65700.00000 0 -15445042.481 13366787.605 15256717.670 10 0 55926 66600.00000 0 -14437206.387 11604401.661 17514608.638 10 0 55926 67500.00000 0 -13461990.505 9535508.252 19431681.950 10 0 55926 68400.00000 0 -12571864.459 7199214.502 20970554.355 10 0 55926 69300.00000 0 -11812190.530 4645141.057 22101203.920 10 0 55926 70200.00000 0 -11219269.593 1931603.545 22801562.029 10 0 55926 71100.00000 0 -10818787.626 -876570.394 23057949.148 10 0 55926 72000.00000 0 -10624728.784 -3710497.923 22865345.558 10 0 55926 72900.00000 0 -10638801.187 -6499869.622 22227491.585 10 0 55926 73800.00000 0 -10850399.748 -9175640.484 21156815.226 10 0 55926 74700.00000 0 -11237107.481 -11672671.103 19674188.508 10 0 55926 75600.00000 0 -11765713.825 -13932209.037 17808517.369 10 0 55926 76500.00000 0 -12393706.412 -15904106.990 15596173.140 10 0 55926 77400.00000 0 -13071172.596 -17548685.483 13080277.014 10 0 55926 78300.00000 0 -13743029.498 -18838162.820 10309851.829 10 0 55926 79200.00000 0 -14351487.370 -19757593.465 7338858.260 10 0 55926 80100.00000 0 -14838641.122 -20305276.746 4225134.962 10 0 55926 81000.00000 0 -15149079.544 -20492620.345 1029264.153 10 0 55926 81900.00000 0 -15232401.045 -20343466.151 -2186614.448 10 0 55926 82800.00000 0 -15045529.020 -19892908.730 -5360017.276 10 0 55926 83700.00000 0 -14554728.620 -19185658.086 -8429333.880 10 0 55926 84600.00000 0 -13737239.669 -18274017.381 -11335023.087 10 0 55926 85500.00000 0 -12582456.953 -17215562.201 -14020764.837 99